{"data":{"norad_id":58873,"intl_designator":"2024-019W","name":"STARLINK-31177","alt_names":[],"object_type":"PAYLOAD","status":"ACTIVE","operator":null,"country":"US","launch_date":"2024-01-29","launch_site_code":"AFETR","launch_vehicle":null,"mission":null,"orbit_class":"UNKNOWN","rcs_meters":null,"size_class":null,"mass_kg":null,"dimensions":null,"purposes":["comms"],"wikipedia_slug":null,"has_3d_model":false,"image_url":null,"decayed_at":null,"tle_current":{"epoch":"2026-09-20T06:24:54.748512Z","epoch_age_seconds":172627,"freshness":"FRESH","line1":"1 58873U 24019W   26263.26730033 -.00002486  00000+0 -80891-4 0  9991","line2":"2 58873  42.9998 229.7777 0001312 260.1358  99.9346 15.27566597148845","mean_motion":15.27566597,"eccentricity":0.0001312,"inclination_deg":42.9998,"raan_deg":229.7777,"arg_perigee_deg":260.1358,"mean_anomaly_deg":99.9346,"bstar":-8.0891e-5,"rev_number":14884,"period_min":94.26757581816901,"perigee_km":482.18903685546,"apogee_km":483.98942261814,"semimajor_km":6861.2262297368,"source":"CELESTRAK","updated_at":"2026-09-21T09:00:33.991018Z"}}}